Regional Weather Roundup
Issued by NWS Cleveland, OH

Home | Current Version | Previous Version | Graphics & Text | Print | Product List | Glossary On
Versions: 1 2 3 4 5 6 7 8 9 10 11 12 13 14 15 16 17 18 19 20 21 22 23 24 25 26 27 28 29 30 31 32 33 34 35 36 37 38 39 40 41 42 43 44 45 46 47 48 49 50
000
ASUS41 KCLE 211702
RWRCLE
OHIO REGIONAL WEATHER ROUNDUP
NATIONAL WEATHER SERVICE CLEVELAND, OH
100 PM EDT SUN SEP 21 2014

NOTE: "FAIR" INDICATES FEW OR NO CLOUDS BELOW 12,000 FEET WITH NO
SIGNIFICANT WEATHER AND/OR OBSTRUCTIONS TO VISIBILITY.

OHZ001>008-015>018-024>027-034-035-043-044-211800-
   NORTHWEST OHIO

CITY           SKY/WX    TMP DP  RH WIND       PRES   REMARKS
DEFIANCE       CLOUDY   N/A N/A N/A W8G20     29.78R
FINDLAY        MOSUNNY   71  52  50 W21G30    29.75S
TOLEDO EXPRESS PTSUNNY   66  49  54 W22G35    29.74R
TOLEDO EXEC    PTSUNNY   68  48  48 W28G33    29.74R
LIMA           SUNNY     71  51  49 W21G29    29.79S
$$

OHZ009>014-019>023-028>033-038-089-211800-
   NORTHEAST OHIO

CITY           SKY/WX    TMP DP  RH WIND       PRES   REMARKS
CLE-HOPKINS    MOSUNNY   73  55  53 W21G26    29.72S
CLE-LAKEFRONT  SUNNY     70  58  65 W22G32    29.68S
CUY CO. ARPT   MOSUNNY   72  61  68 NW14G25   29.71S
LORAIN-ELYRIA  SUNNY     74  54  49 W18G25    29.72S
ASHTABULA      MOSUNNY   71  60  68 W17G32    29.69S
AKRON-CANTON   MOSUNNY   78  55  44 W17G24    29.71F
WOOSTER        MOSUNNY   77  57  50 W17G26    29.73S
MANSFIELD      SUNNY     74  48  39 W13G29    29.75S
YOUNGSTOWN     PTSUNNY   78  56  46 SW20G31   29.69F
$$

OHZ042-051>053-060>062-070>072-077>081-211800-
  SOUTHWEST OHIO

CITY           SKY/WX    TMP DP  RH WIND       PRES   REMARKS
CINC-COVINGTON MOSUNNY   76  52  43 W21G29    29.86S
CINC-LUNKEN    MOSUNNY   78  58  49 W17G24    29.84F
HAMILTON       SUNNY     76  45  33 W14G22    29.86S
DAYTON         MOSUNNY   76  46  34 W24       29.84S
WRIGHT-PAT AFB SUNNY     75  43  31 W20G26    29.82S
DAYTON GENERAL SUNNY     74  43  32 W18       29.84R
WILMINGTON     MOSUNNY   76  56  49 W18G32    29.82S
$$

OHZ036-037-039>041-045>050-054>059-063>069-073>076-082>088-211800-
  CENTRAL AND SOUTHEAST OHIO

CITY           SKY/WX    TMP DP  RH WIND       PRES   REMARKS
COLUMBUS       MOSUNNY   81  56  42 W25       29.77S
OSU AIRPORT    SUNNY     77  43  29 W17G26    29.78S
BOLTON FIELD   MOSUNNY   75  55  50 W15G24    29.79S
RICKENBACK AFB MOSUNNY   78  59  52 W17G25    29.77F
NEWARK         PTSUNNY   80  59  48 W16G22    29.75F
MARION         SUNNY     73  47  39 W17       29.77S
LANCASTER      PTSUNNY   76  63  64 NW7       29.77F
ZANESVILLE     PTSUNNY   77  61  57 W10G22    29.76F
NEW PHILLY     MOSUNNY   79  64  60 SW10G18   29.73F
$$


USA.gov is the U.S. government's official web portal to all federal, state and local government web resources and services.